Regional Weather Roundup
Issued by NWS Green Bay, WI

Home | Current Version | Previous Version | Graphics & Text | Print | Product List | Glossary Off
Versions: 1 2 3 4 5 6 7 8 9 10 11 12 13 14 15 16 17 18 19 20 21 22 23 24 25 26 27 28 29 30 31 32 33 34 35 36 37 38 39 40 41 42 43 44 45 46 47 48 49 50

000
ASUS43 KGRB 310459
RWRGRB

NORTH-CENTRAL AND NORTHEAST WISCONSIN REGIONAL WEATHER ROUNDUP
NATIONAL WEATHER SERVICE GREEN BAY WI
1100 PM CST FRI JAN 30 2015

WIZ005-009-010>012-018-019-310600-
NORTH CENTRAL WISCONSIN

CITY           SKY/WX    TMP DP  RH WIND       PRES   REMARKS
IRONWOOD       CLOUDY    18   7  62 SW9       30.13F WCI   6
MANITOWISH WTR NOT AVBL
ARBOR VITAE    NOT AVBL
EAGLE RIVER    NOT AVBL
LAND O LAKES   NOT AVBL
RHINELANDER    CLOUDY    14   5  67 SW7       30.17F WCI   4
PHILLIPS       NOT AVBL
ANTIGO         NOT AVBL
TOMAHAWK       NOT AVBL
MERRILL        NOT AVBL
$$

WIZ013-073-310600-
NORTHEAST WISCONSIN

CITY           SKY/WX    TMP DP  RH WIND       PRES   REMARKS
IRON MOUNTAIN  CLOUDY    16   8  71 S3        30.19F
MARINETTE      CLOUDY    19  10  68 SW5       30.27F
$$

WIZ017-030-035>037-045-310600-
CENTRAL WISCONSIN

CITY           SKY/WX    TMP DP  RH WIND       PRES   REMARKS
MEDFORD        NOT AVBL
WAUSAU         CLOUDY    15   5  64 SW7       30.21F WCI   5
MOSINEE        NOT AVBL
MARSHFIELD     MOCLDY    16   5  62 S5        30.21F WCI   9
WISC RAPIDS    CLOUDY    15   5  64 S5        30.25F WCI   8
STEVENS POINT  NOT AVBL
WAUPACA        NOT AVBL
SHAWANO        NOT AVBL
CLINTONVILLE   NOT AVBL
$$

WIZ038-039-048-051-310600-
FOX VALLEY

CITY           SKY/WX    TMP DP  RH WIND       PRES   REMARKS
NWS GREEN BAY  CLOUDY    19  12  74 S6        30.29F
APPLETON       MOCLDY    18   7  62 SW5       30.29S
OSHKOSH        PTCLDY    17   8  67 CALM      30.29R
FOND DU LAC    PTCLDY    18   8  65 SW3       30.29F
$$

WIZ022-050-052-310600-
EAST CENTRAL WISCONSIN

CITY           SKY/WX    TMP DP  RH WIND       PRES   REMARKS
STURGEON BAY   CLOUDY    19   9  63 SW9       30.29F WCI   9
MANITOWOC      NOT AVBL
SHEBOYGAN      MOCLDY    17  10  74 SW6       30.29F WCI   9
$$

LMZ563-521-522-541>543-310600-
LAKESHORE

STATION/POSITION TIME  TEMP    WIND        PRES    VSBY  WAVE
                       AIR SEA DIR/SP/G                  HT/PER
                 (UTC) (F)     (DEG/KT/KT) (MB)    (MI)  (FT/S)
SHEBOYGAN LKSHOR 0400   22     220/ 10/ 12 1028.1F
KEWAUNEE LKSHORE 0400   20     220/  6/  8 1025.4F
NORTHPORT PIER   0400   18     190/  3/  7 1026.1S
SISTER BAY LKSHO 0400   19     200/  8/ 10   N/A
CHAMBERS ISLAND  0400   18     190/  5/ 11 1026.1S
MENOMINEE LKSHOR 0400   19     200/  5     1025.9F
$$



USA.gov is the U.S. government's official web portal to all federal, state and local government web resources and services.